Location: Tauranga
(37.6860°S, 176.1670°E)
Time: 22:08:48
(UTC+13:00)

Cosmos 1763 Rocket - Pass Details

Date: 24 January 2019
Orbit: 732 x 780 km, 74.0° (Epoch: 15 October)

Event Time Altitude Azimuth Distance (km) Brightness Sun altitude
Rises 22:26:20 0° 204° (SSW) 3,263 8.0 -18.9°
Reaches altitude 10° 22:28:47 10° 209° (SSW) 2,322 7.1 -19.3°
Maximum altitude 22:33:52 50° 283° (WNW) 967 4.2 -20.0°
Enters shadow 22:36:46 24° 347° (NNW) 1,543 4.8 -20.4°
